Location: Kampung Segan
(3.1399°N, 113.1002°E)
Time: 19:00:42
(UTC+00:00)

Cosmos 2228 - Pass Details

Date: 05 August 2024
Orbit: 575 x 601 km, 82.5° (Epoch: 11 September)

Event Time Altitude Azimuth Distance (km) Brightness Sun altitude
Rises 12:07:32 0° 357° (N) 2,785 6.7 -21.4°
Reaches altitude 10° 12:09:42 10° 358° (N) 1,893 5.8 -21.9°
Maximum altitude 12:13:53 84° 86° (E) 593 2.8 -22.9°
Enters shadow 12:14:05 79° 140° (SE) 599 2.8 -23.0°
